Wind_Speed
7 6 7 6 6 6 7 8 9 10 11 11 11 11 11 11 11 11 10 10 9 8 8 7 7 7 7 7 6 6 6 7 7 7 7 7 7 7 7 7 7 7 8
7 7 7 7 6 6 6 7 9 10 10 11 10 10 10 10 10 10 9 9 8 8 7 7 7 7 6 6 6 6 6 6 6 6 6 6 6 7 7 7 6 7 7
7 7 7 7 7 7 7 8 8 9 10 10 10 10 9 9 9 9 8 8 8 7 7 7 6 6 6 5 5 5 5 5 5 5 5 5 6 6 6 6 6 6 6
8 8 8 8 8 8 7 8 8 9 9 9 9 9 9 8 8 8 7 7 7 6 6 6 6 6 5 5 5 4 5 5 5 4 5 5 5 5 5 5 5 5 5
8 8 9 9 9 9 8 8 9 9 9 9 9 8 8 7 7 6 6 6 6 5 5 5 5 5 5 4 4 4 4 4 4 4 4 4 4 4 5 5 5 5 5
8 9 10 10 10 10 9 9 9 9 9 8 8 8 7 7 6 6 5 5 5 5 4 4 4 4 4 3 3 3 4 4 4 4 4 3 4 4 4 4 4 4 4
9 10 11 11 11 11 11 10 10 10 9 8 8 7 6 6 5 5 5 4 4 4 3 3 3 3 3 2 2 2 3 4 4 4 4 4 4 4 4 4 4 4 4
10 10 11 13 13 13 12 12 11 10 9 8 8 7 5 5 4 4 4 3 2 2 2 2 2 2 2 2 2 2 3 4 4 4 4 4 4 4 4 5 5 4 4
10 11 12 13 14 14 14 13 12 11 10 9 8 7 5 4 4 3 2 2 2 1 1 1 1 2 2 2 2 3 4 4 4 4 4 4 5 5 5 5 5 5 5
10 12 13 14 15 15 15 15 14 13 12 10 9 7 6 4 3 3 2 1 0 0 0 1 1 2 2 2 3 3 4 4 4 5 5 5 6 6 5 5 5 5 6
11 13 14 15 16 16 17 16 15 14 13 12 10 8 7 5 4 3 2 1 0 0 1 1 1 2 2 2 3 3 4 4 4 5 5 5 6 6 6 6 6 6 6
12 13 15 17 17 18 18 18 17 15 14 13 11 9 8 6 5 4 3 2 1 1 1 1 1 1 1 2 2 2 3 4 4 5 5 5 6 6 7 7 7 7 7
12 14 16 18 18 19 20 20 19 17 16 15 13 11 9 8 6 6 4 3 2 1 1 1 1 1 1 1 1 2 2 3 4 5 5 5 6 6 6 7 8 8 8
13 14 15 18 20 20 20 21 20 19 17 15 14 12 11 9 8 7 6 4 3 1 1 1 1 1 0 1 1 1 2 3 4 5 5 5 6 6 6 6 7 8 9
14 15 16 18 20 21 21 22 21 20 19 17 15 14 12 10 9 8 6 5 4 3 2 1 1 1 1 1 1 2 2 3 4 4 4 5 5 6 6 6 7 8 9
15 17 18 20 22 23 23 23 22 21 20 18 16 14 12 11 9 8 7 5 5 4 3 2 1 1 1 1 2 2 2 3 4 5 5 5 5 5 6 6 8 8 8
14 16 19 21 23 24 24 24 22 22 21 19 17 15 13 11 10 9 8 6 5 4 4 3 2 2 2 2 2 3 3 3 4 5 5 6 5 5 5 5 6 7 8
14 15 18 20 23 25 25 26 24 22 21 20 18 16 14 12 11 10 9 7 6 5 5 3 2 2 2 2 2 2 2 2 3 4 5 5 5 5 5 5 6 6 6
14 15 16 18 21 23 25 26 25 23 22 21 19 17 15 13 11 10 10 8 7 6 5 4 3 2 2 2 1 1 1 2 2 3 3 4 5 5 5 5 6 6 6
12 14 15 16 19 23 24 26 25 24 23 21 20 17 15 14 12 11 10 9 8 7 6 5 3 2 2 2 1 1 1 2 2 2 3 3 4 4 4 5 5 6 6
12 13 14 16 18 21 23 24 24 23 22 21 20 18 16 14 13 12 11 10 9 8 6 5 4 3 2 2 2 2 2 2 2 3 3 3 3 3 3 4 4 5 6
10 11 12 15 18 20 22 23 22 23 24 22 20 18 17 16 14 13 12 11 10 8 7 6 5 4 3 3 2 2 2 2 2 3 3 3 3 3 4 4 5 6 6
10 11 11 12 16 20 21 22 23 22 23 22 19 18 17 16 15 14 13 12 11 9 8 7 6 5 5 4 3 3 3 2 3 3 3 3 4 4 5 6 6 7 7
10 10 10 11 14 18 20 21 22 23 22 22 21 20 18 17 16 15 14 13 12 11 9 8 7 6 5 5 4 3 3 3 3 4 4 4 5 6 6 7 7 7 8
10 9 10 12 13 16 19 20 23 23 22 22 21 20 19 18 18 16 15 14 13 12 10 9 7 6 5 5 4 4 4 4 5 5 5 6 6 6 7 8 8 9 9
8 7 8 11 14 17 19 19 22 22 22 22 21 20 20 20 19 18 17 15 14 13 11 10 9 8 7 6 6 6 6 6 6 7 7 7 8 8 9 9 10 10 11
Wind_Direction
160 157 156 155 155 160 159 154 145 135 126 119 112 107 103 100 98 96 94 93 92 91 91 91 92 93 93 95 97 100 105 106 106 103 101 101 99 97 99 101 102 102 103
178 172 172 168 168 172 171 164 153 141 133 124 118 111 106 102 98 96 96 94 93 92 93 94 96 96 96 98 99 102 108 111 112 111 108 108 105 103 102 103 105 107 107
191 186 181 180 182 180 181 173 161 149 139 131 124 117 110 105 100 96 94 93 93 94 96 98 101 102 101 103 107 110 114 117 120 120 119 115 110 109 108 107 109 111 112
201 199 194 192 192 188 189 181 169 158 146 137 128 122 115 109 102 97 94 94 94 95 98 102 104 106 106 108 113 119 122 125 128 132 130 124 121 120 117 115 117 118 119
209 207 203 197 196 196 194 187 176 166 154 143 134 127 119 111 104 99 96 96 96 96 99 104 107 110 111 113 119 126 135 136 136 140 139 134 131 133 129 127 126 128 129
215 212 207 201 201 202 198 191 184 173 162 153 144 134 124 113 104 99 95 94 94 94 99 107 112 113 115 119 125 136 148 150 150 152 153 148 143 145 142 141 139 138 141
222 217 212 209 207 205 204 198 191 182 174 165 156 145 133 119 108 101 96 94 91 91 98 107 116 121 122 131 136 144 159 167 166 167 171 167 161 162 161 158 155 153 152
228 222 216 214 212 209 207 204 198 191 184 178 170 159 148 135 125 113 106 97 88 83 100 120 139 145 144 152 163 171 174 173 177 182 187 185 184 182 179 176 175 170 167
232 227 223 221 218 215 212 209 204 197 192 187 181 175 168 157 146 138 125 97 78 75 99 129 169 173 173 181 186 192 192 190 189 190 198 198 199 200 195 189 190 187 183
237 232 228 225 221 219 217 212 207 203 199 196 192 187 184 181 172 166 161 152 112 56 124 145 182 185 186 189 189 192 198 206 207 209 210 212 210 206 202 199 196 196 197
245 235 231 225 223 221 218 215 211 208 205 204 202 198 201 200 196 194 194 196 213 212 170 170 182 175 178 177 179 187 200 210 218 219 217 219 217 216 215 211 206 207 207
248 240 232 224 222 222 220 216 213 212 211 212 211 209 209 208 213 215 214 213 194 155 153 141 161 164 172 171 180 199 209 210 221 222 223 227 227 226 225 222 217 217 215
256 246 236 226 223 223 221 217 215 215 215 217 218 217 217 218 223 226 221 208 197 181 148 146 158 154 160 183 194 212 230 219 217 220 227 232 233 235 234 227 222 222 220
258 247 237 231 225 224 222 217 217 217 217 219 220 221 221 222 225 223 218 211 207 190 172 158 135 142 183 243 236 248 240 225 217 222 227 232 236 241 242 239 232 232 231
257 245 237 232 228 223 220 217 219 219 219 220 222 225 222 223 221 218 216 216 210 198 191 180 156 156 236 254 266 266 249 238 228 229 231 240 245 245 249 250 242 240 238
255 244 237 234 230 222 219 219 219 220 219 218 221 224 224 223 221 220 217 213 207 202 200 193 186 238 280 274 265 259 258 251 238 237 244 251 252 253 257 258 250 248 248
256 246 241 235 226 218 217 219 221 220 220 220 218 221 221 222 221 221 219 213 206 203 202 201 207 245 270 273 265 258 260 259 251 247 255 257 255 259 264 263 260 254 256
256 249 246 237 227 221 218 218 220 219 218 217 217 219 219 219 218 217 213 212 207 206 205 205 214 235 260 279 277 270 263 258 255 256 260 261 261 262 262 267 268 266 268
261 252 247 239 228 224 221 219 217 216 215 215 216 216 217 217 213 213 212 208 206 205 207 207 210 224 245 263 275 277 265 253 257 259 262 264 265 268 271 273 274 277 278
266 255 246 238 226 222 218 216 215 215 214 214 215 213 212 211 208 210 209 207 209 209 209 205 205 209 218 226 246 260 255 255 262 262 270 278 279 279 283 283 282 284 285
271 262 253 237 228 221 217 214 216 212 212 212 212 211 210 208 207 209 205 205 205 205 205 202 202 204 207 220 236 245 254 265 273 276 280 293 293 293 289 287 290 295 296
278 265 254 234 225 221 217 215 214 210 211 209 209 210 210 207 207 208 206 204 203 203 205 204 202 201 205 219 233 241 251 266 267 276 281 284 293 300 293 289 292 296 297
292 275 251 231 224 220 215 211 210 208 209 208 207 208 209 207 209 207 206 204 203 202 207 210 208 208 212 225 238 242 245 264 278 285 289 285 286 289 291 295 295 298 301
295 276 255 233 222 215 212 208 210 208 208 208 209 209 210 210 210 207 204 204 204 205 208 208 208 210 219 227 230 238 252 267 283 292 291 287 286 286 287 288 288 291 296
299 274 250 233 219 211 209 210 208 208 209 209 209 211 211 212 211 207 206 206 206 207 207 208 213 217 222 229 237 249 259 268 279 289 290 288 286 286 287 287 286 286 289
306 285 248 232 219 211 210 210 206 208 211 212 212 212 213 214 211 210 208 208 209 209 210 214 220 225 231 238 245 255 262 268 276 285 287 288 288 287 287 288 288 287 288
Height
5894 5894 5894 5895 5896 5896 5897 5897 5897 5897 5898 5898 5898 5898 5899 5899 5899 5900 5900 5900 5900 5900 5900 5900 5900 5900 5900 5900 5900 5899 5899 5899 5899 5899 5899 5899 5899 5898 5898 5897 5897 5897 5896
5894 5894 5894 5895 5896 5896 5897 5898 5898 5898 5898 5898 5899 5899 5900 5900 5900 5900 5900 5900 5900 5901 5901 5901 5901 5901 5901 5901 5901 5900 5900 5900 5900 5900 5900 5900 5899 5899 5899 5899 5898 5898 5898
5893 5893 5894 5895 5896 5896 5897 5898 5898 5898 5898 5899 5899 5900 5900 5900 5901 5901 5901 5901 5901 5901 5901 5901 5901 5901 5901 5901 5901 5901 5901 5901 5901 5901 5901 5900 5900 5900 5900 5900 5900 5899 5899
5892 5892 5893 5894 5895 5896 5897 5898 5898 5898 5899 5899 5899 5900 5900 5901 5901 5901 5901 5901 5901 5901 5901 5901 5901 5902 5902 5902 5902 5901 5901 5901 5901 5901 5901 5901 5901 5901 5901 5901 5901 5901 5900
5890 5891 5892 5893 5895 5896 5896 5897 5898 5898 5899 5899 5900 5900 5901 5901 5901 5901 5901 5901 5902 5901 5901 5901 5901 5902 5902 5902 5902 5902 5902 5902 5902 5902 5902 5902 5902 5902 5902 5902 5902 5902 5901
5889 5890 5891 5892 5894 5895 5896 5897 5897 5898 5898 5899 5900 5900 5901 5901 5901 5901 5901 5901 5902 5901 5901 5901 5901 5901 5901 5901 5901 5902 5902 5902 5902 5902 5902 5902 5902 5902 5902 5902 5902 5902 5902
5887 5888 5889 5891 5892 5893 5894 5896 5896 5897 5898 5899 5899 5900 5901 5901 5901 5901 5901 5901 5901 5901 5901 5901 5901 5901 5901 5901 5901 5901 5902 5902 5902 5902 5902 5902 5902 5902 5903 5903 5903 5903 5903
5886 5886 5887 5889 5890 5892 5893 5894 5895 5896 5897 5898 5899 5900 5900 5901 5901 5901 5901 5901 5901 5900 5901 5900 5900 5900 5900 5901 5901 5901 5901 5901 5901 5901 5901 5902 5902 5902 5903 5903 5903 5903 5903
5884 5885 5886 5887 5889 5890 5891 5893 5894 5895 5896 5897 5898 5899 5900 5900 5900 5900 5900 5900 5900 5900 5900 5900 5900 5900 5900 5900 5900 5900 5900 5901 5901 5901 5901 5901 5901 5902 5902 5902 5903 5903 5903
5882 5883 5884 5885 5887 5888 5889 5891 5892 5894 5895 5896 5897 5898 5899 5899 5899 5899 5900 5900 5899 5899 5899 5899 5899 5899 5899 5899 5899 5900 5900 5900 5900 5900 5900 5901 5901 5901 5901 5901 5902 5902 5903
5879 5880 5881 5883 5884 5886 5887 5889 5890 5892 5893 5895 5896 5897 5898 5898 5899 5899 5899 5899 5899 5899 5898 5898 5898 5898 5898 5898 5898 5899 5899 5899 5900 5900 5900 5900 5900 5900 5900 5901 5901 5901 5902
5876 5877 5878 5879 5881 5883 5885 5886 5888 5890 5891 5893 5894 5895 5896 5897 5897 5898 5898 5898 5898 5898 5898 5897 5897 5897 5897 5898 5898 5898 5898 5898 5899 5899 5899 5899 5899 5899 5899 5900 5900 5900 5901
5873 5873 5874 5876 5878 5880 5882 5884 5886 5888 5889 5891 5892 5894 5895 5895 5896 5896 5897 5897 5897 5897 5897 5897 5897 5897 5897 5897 5897 5897 5897 5897 5897 5898 5898 5898 5899 5899 5898 5899 5899 5899 5900
5870 5870 5871 5872 5875 5877 5879 5881 5883 5885 5887 5888 5890 5892 5893 5894 5894 5895 5895 5896 5896 5896 5896 5896 5896 5896 5896 5896 5896 5896 5896 5896 5897 5897 5897 5897 5898 5898 5897 5898 5898 5898 5899
5866 5866 5867 5868 5871 5873 5876 5878 5880 5882 5884 5886 5888 5889 5891 5891 5892 5893 5894 5895 5895 5895 5895 5895 5896 5896 5896 5896 5896 5896 5896 5896 5896 5896 5896 5896 5896 5896 5896 5896 5897 5897 5897
5861 5861 5862 5864 5866 5869 5872 5874 5876 5879 5881 5883 5885 5887 5888 5890 5891 5892 5893 5894 5894 5895 5895 5895 5895 5895 5895 5895 5895 5895 5895 5895 5895 5895 5895 5895 5895 5895 5895 5895 5895 5895 5896
5856 5857 5858 5859 5862 5865 5868 5871 5873 5875 5878 5880 5882 5884 5886 5888 5889 5891 5891 5892 5893 5894 5894 5894 5895 5895 5895 5895 5894 5894 5894 5894 5894 5894 5894 5894 5894 5894 5894 5894 5894 5894 5894
5853 5853 5854 5855 5857 5860 5863 5866 5869 5872 5875 5877 5879 5882 5884 5886 5887 5889 5890 5891 5892 5893 5893 5894 5894 5894 5894 5894 5894 5894 5893 5893 5894 5893 5893 5893 5893 5893 5893 5893 5893 5893 5893
5850 5849 5850 5851 5853 5856 5859 5862 5865 5868 5871 5874 5877 5879 5881 5883 5885 5887 5889 5890 5891 5892 5893 5893 5893 5893 5894 5893 5893 5893 5893 5893 5893 5893 5893 5893 5892 5892 5892 5892 5892 5892 5892
5847 5846 5846 5847 5849 5852 5855 5859 5862 5865 5868 5871 5874 5877 5879 5881 5883 5885 5887 5888 5890 5891 5892 5892 5892 5893 5893 5893 5893 5893 5893 5893 5893 5893 5892 5892 5892 5892 5891 5891 5891 5891 5891
5844 5843 5843 5844 5846 5849 5851 5855 5859 5862 5865 5868 5871 5874 5876 5879 5881 5884 5885 5887 5888 5890 5891 5891 5892 5892 5892 5892 5892 5892 5892 5892 5892 5892 5892 5892 5891 5891 5891 5891 5891 5890 5890
5840 5840 5840 5841 5842 5845 5848 5851 5855 5858 5862 5865 5868 5871 5874 5877 5879 5882 5884 5885 5887 5888 5889 5890 5891 5891 5891 5892 5892 5892 5892 5893 5892 5892 5892 5891 5891 5891 5890 5890 5890 5889 5889
5838 5837 5836 5837 5839 5841 5844 5848 5852 5856 5860 5863 5866 5869 5872 5875 5877 5879 5882 5884 5885 5887 5888 5889 5890 5890 5891 5891 5891 5891 5891 5892 5891 5891 5891 5891 5890 5890 5890 5889 5889 5888 5888
5836 5834 5833 5834 5836 5838 5841 5845 5849 5854 5857 5861 5864 5867 5870 5873 5875 5878 5880 5882 5884 5885 5887 5888 5889 5889 5890 5890 5890 5890 5891 5891 5891 5891 5890 5890 5889 5889 5889 5888 5887 5887 5886
5833 5832 5831 5832 5833 5836 5839 5842 5847 5851 5855 5858 5861 5864 5867 5870 5873 5875 5878 5880 5882 5883 5885 5886 5887 5888 5888 5889 5889 5889 5889 5889 5889 5889 5889 5889 5888 5888 5887 5886 5886 5885 5884
5831 5829 5828 5829 5831 5834 5837 5840 5844 5848 5852 5855 5859 5862 5865 5868 5870 5873 5875 5878 5880 5881 5883 5885 5886 5886 5887 5888 5888 5888 5888 5888 5888 5888 5887 5887 5886 5886 5885 5884 5884 5883 5882